Flag for Central African Republic Weather past 2 weeks in Bangui, Central African Republic

Now
81 °F

Partly sunny.


Feels Like: 85 °F
Forecast: 71 / 87 °F
Wind: 2 mph from North

Location: Bangui Airport

Current Time: Oct 21, 2014 at 10:32:02 AM

Latest Report: Oct 21, 2014 at 9:00 AM


Visibility: N/A

Pressure: 29.98 "Hg

Humidity: 79%

Dew point: 73 °F

Location of BanguiLocation

Historic Weather in Bangui — Graph

°F

Bangui temperature yesterday

Maximum temperature yesterday: 93 °F (at 4:00 PM)
Minimum temperature yesterday: 72 °F (at 2:00 AM)
Average temperature yesterday: 81 °F

Past Weeks' High & Low Weather Summary

 TemperatureHumidityPressure
High95 °F (Oct 17, 1:00 PM)100% (Oct 7, 12:00 AM)30.04 "Hg (Oct 7, 12:00 AM)
Low68 °F (Oct 12, 4:00 AM)41% (Oct 17, 1:00 PM)29.74 "Hg (Oct 8, 4:00 PM)
Average79 °F83%29.87 "Hg
* Reported Oct 6 9:00 AM — Oct 21 9:00 AM, Bangui, Weather by CustomWeather, © 2014

Note: Actual official high and low records may vary slightly from our data, if they occured in-between our weather recording intervals... More about our weather records

Advertising

Bangui weather history for previous 24 hours

 ConditionsComfort  
Time TempWeatherWind HumidityBarometerVisibility
9:00 AM
Oct 21
81 °FPartly sunny.2 mph79%29.98 "HgN/A
8:00 AM79 °FPartly sunny.3 mph84%29.95 "HgN/A
7:00 AM77 °FSunny.3 mph89%29.92 "Hg10 mi
6:00 AM73 °FSunny.No wind100%29.89 "Hg10 mi
5:00 AM75 °FClear.2 mph94%29.89 "Hg10 mi
4:00 AM75 °FClear.3 mph94%29.89 "Hg10 mi
3:00 AM73 °FClear.2 mph100%29.86 "Hg10 mi
2:00 AM73 °FClear.No wind100%29.86 "Hg10 mi
1:00 AM75 °FClear.No wind94%29.86 "Hg10 mi
12:00 AM75 °FClear.No wind94%29.89 "Hg10 mi
11:00 PM
Oct 20
77 °FClear.No wind94%29.89 "Hg10 mi
10:00 PM77 °FClear.1 mph89%29.89 "Hg10 mi
9:00 PM79 °FClear.1 mph94%29.89 "Hg10 mi
8:00 PM81 °FPassing clouds.No wind79%29.86 "HgN/A
7:00 PM81 °FThunderstorms. Passing clouds.5 mph84%29.83 "HgN/A
6:00 PM81 °FPartly cloudy.1 mph84%29.80 "HgN/A
5:00 PM86 °FScattered clouds.9 mph62%29.77 "HgN/A
4:00 PM93 °FScattered clouds.5 mph47%29.77 "HgN/A
3:00 PM91 °FScattered clouds.3 mph52%29.77 "HgN/A
2:00 PM91 °FScattered clouds.3 mph56%29.80 "HgN/A
1:00 PM90 °FPartly sunny.2 mph59%29.83 "HgN/A
12:00 PM90 °FPartly sunny.3 mph55%29.89 "HgN/A
11:00 AM86 °FPartly sunny.N/A66%29.92 "HgN/A
10:00 AM84 °FPartly sunny.2 mph70%29.95 "HgN/A
Weather by CustomWeather, © 2014

See weather overviewHow to use our weather pages